This is the latest recevied weather packets stored in our database for station/object KN4MGS. If no packets are shown the sender has not sent any weather packets the latest 10 day(s).
| Time | Temp. | Humidity | Pressure | Rain* | Wind** | Luminosity | Snow |
|---|---|---|---|---|---|---|---|
| 1777969385 | 9.44° C | 97% | 1018.9 hPa | 0 mm | - | 0 W/m² | - |
| 1777969082 | 10° C | 97% | 1019 hPa | 0 mm | - | 0 W/m² | - |
| 1777968778 | 9.44° C | 96% | 1019 hPa | 0 mm | - | 0 W/m² | - |
| 1777968475 | 9.44° C | 95% | 1019.1 hPa | 0 mm | - | 0 W/m² | - |
| 1777968171 | 10° C | 94% | 1018.7 hPa | 0 mm | - | 0 W/m² | - |
| 1777967866 | 10° C | 94% | 1019 hPa | 0 mm | - | 0 W/m² | - |
| 1777967564 | 10.56° C | 93% | 1018.8 hPa | 0 mm | - | 0 W/m² | - |
| 1777967261 | 10.56° C | 93% | 1018.7 hPa | 0 mm | - | 0 W/m² | - |
| 1777966958 | 10.56° C | 92% | 1019 hPa | 0 mm | - | 0 W/m² | - |
| 1777966656 | 10.56° C | 92% | 1019 hPa | 0 mm | - | 0 W/m² | - |
| 1777966353 | 11.11° C | 92% | 1018.9 hPa | 0 mm | - | 0 W/m² | - |
| 1777966050 | 11.11° C | 92% | 1018.8 hPa | 0 mm | - | 0 W/m² | - |
| 1777965746 | 11.11° C | 91% | 1018.9 hPa | 0 mm | - | 0 W/m² | - |
| 1777965441 | 11.11° C | 90% | 1019 hPa | 0 mm | - | 0 W/m² | - |
| 1777965139 | 11.67° C | 89% | 1019 hPa | 0 mm | - | 0 W/m² | - |
| 1777964837 | 11.67° C | 88% | 1018.5 hPa | 0 mm | - | 0 W/m² | - |
| 1777964532 | 12.22° C | 86% | 1018.8 hPa | 0 mm | - | 0 W/m² | - |
| 1777964228 | 12.22° C | 86% | 1018.9 hPa | 0 mm | - | 0 W/m² | - |
| 1777963925 | 12.78° C | 84% | 1019 hPa | 0 mm | - | 0 W/m² | - |
| 1777963622 | 12.78° C | 84% | 1018.8 hPa | 0 mm | - | 0 W/m² | - |
| 1777963320 | 13.33° C | 82% | 1018.6 hPa | 0 mm | - | 0 W/m² | - |
| 1777963017 | 12.78° C | 83% | 1018.7 hPa | 0 mm | - | 0 W/m² | - |
| 1777962713 | 12.78° C | 84% | 1018.8 hPa | 0 mm | - | 0 W/m² | - |
| 1777962409 | 12.22° C | 85% | 1018.8 hPa | 0 mm | - | 0 W/m² | - |
| 1777962107 | 12.22° C | 86% | 1018.8 hPa | 0 mm | - | 0 W/m² | - |
* Rain latest hour (hover to see other rain measurements)
** Current wind speed in m/s (hover to see current wind gust speed)